7 * 24
多渠道服务支持
STARLINK-32794 是 SpaceX Starlink 卫星互联网项目中的一颗低轨卫星,属于第 6 批次发射的星链卫星群。该卫星运行在约 550 公里的轨道高度,旨在为全球用户提供高速互联网服务。作为 Starlink 计划的一部分,它与其他数千颗卫星协同工作,提升网络覆盖与连接稳定性。该系统主要面向偏远地区,支持宽带接入,同时具备低延迟和高带宽特性。
美国
(US)
| 数据来源 | 国际轨道数据 |
| 星历时间: | 2025-11-05T08:52:00+0800 13小时前 查看轨道信息 |
| 半长轴: | 6861.196km |
| 偏心率: | 0.0000848 |
| 轨道倾角: | 42.999° |
| 近地点辐角 | 332.385° |
| 升交点赤经 | 73.223° |
| 平近点角 | 27.696° |
| 近地点: | 482.479km |
| 远地点: | 483.643km |
| 周期: | 94.267分钟 |
| 每日圈数: | 15.275767 |